Regional Weather Roundup
Issued by NWS Charleston, WV

Home | Current Version | Previous Version | Text Only | Print | Product List | Glossary Off
Versions: 1 2 3 4 5 6 7 8 9 10 11 12 13 14 15 16 17 18 19 20 21 22 23 24 25 26 27

000
ASUS41 KRLX 151610
RWRRLX
West Virginia Regional Weather Roundup
National Weather Service Charleston WV
1200 PM EDT TUE APR 15 2014

Note: "fair" indicates few or no clouds below 12,000 feet with no
significant weather and/or obstructions to visibility.

WVZ003-151700-
Northern Panhandle of West Virginia

CITY           SKY/WX    TMP DP  RH WIND       PRES   REMARKS
WHEELING       CLOUDY    34  31  88 NW16G22   29.86S
$$

WVZ009-151700-
Northwest West Virginia

CITY           SKY/WX    TMP DP  RH WIND       PRES   REMARKS
PARKERSBURG    LGT SNOW  35  31  85 NW9G20    29.95R FOG
$$

WVZ006-151700-
Western West Virginia

CITY           SKY/WX    TMP DP  RH WIND       PRES   REMARKS
HUNTINGTON     LGT SNOW  32  31  96 NW8G16    30.01R VSB 3/4
$$

WVZ015-151700-
West Central West Virginia

CITY           SKY/WX    TMP DP  RH WIND       PRES   REMARKS
CHARLESTON     LGT SNOW  34  33  96 W14G21    29.94R VSB 1
$$

WVZ031-151700-
North Central West Virginia

CITY           SKY/WX    TMP DP  RH WIND       PRES   REMARKS
CLARKSBURG     LGT SNOW  36  33  89 NW13      29.85R FOG
MORGANTOWN     LGT RAIN  38  33  82 NW7       29.86R
$$

WVZ035-042-045-151700-
South Central West Virginia

CITY           SKY/WX    TMP DP  RH WIND       PRES   REMARKS
BECKLEY        LGT SNOW  36  34  92 W13       29.84R FOG
BLUEFIELD      CLOUDY    39  35  86 W12G17    29.82R FOG
LEWISBURG      CLOUDY    39  35  85 W10G17    29.79R
$$

WVZ047-151700-
Northern Mountains of West Virginia

CITY           SKY/WX    TMP DP  RH WIND       PRES   REMARKS
ELKINS         CLOUDY    39  34  82 W12G18    29.81R
$$

WVZ052-151700-
Eastern Panhandle of West Virginia

CITY           SKY/WX    TMP DP  RH WIND       PRES   REMARKS
MARTINSBURG    CLOUDY    56  44  64 W23G32    29.62R
PETERSBURG     CLOUDY    57  47  68 W14       29.70R
$$



USA.gov is the U.S. government's official web portal to all federal, state and local government web resources and services.